Regional Weather Roundup
Issued by NWS

Home | Current Version | Previous Version | Text Only | Print | Product List | Glossary On
Versions: 1 2 3 4 5 6 7 8 9 10 11 12 13 14 15 16 17 18 19 20 21 22 23 24 25 26 27 28 29 30 31 32 33 34 35 36 37 38 39 40 41 42 43 44 45 46 47 48 49 50
000
ASHW40 PHFO 260610
RWRHI

WEATHER ROUNDUP FOR HAWAII
NATIONAL WEATHER SERVICE HONOLULU HI
800 PM HST MON MAY 25 2015

THIS IS AN AUTOMATED REPORT THAT HAS NOT BEEN QUALITY CONTROLLED.

NOTE..."FAIR" INDICATES FEW OR NO CLOUDS BELOW 12,000 FEET WITH NO
SIGNIFICANT WEATHER AND/OR OBSTRUCTIONS TO VISIBILITY.

* - THESE SITES REPORT LIMITED FIELDS

HIZ001>004-260700-
KAUAI-NIIHAU-

CITY           SKY/WX    TMP DP  RH WIND       PRES   REMARKS
LIHUE APT      MOCLDY    71  59  65 N7        29.98R
PORT ALLEN*    NOT AVBL
POIPU*           N/A     72 N/A N/A NE3G10      N/A
PRINCEVILLE*     N/A     72 N/A N/A MISG        N/A
KOKOLE POINT*  NOT AVBL
MOLOAA DAIRY*  NOT AVBL
WAIMEA HTS*    NOT AVBL
PUU OPAE*      NOT AVBL
PUU LUA*       NOT AVBL
MAKAHA RIDGE*  NOT AVBL
$$

HIZ005>011-260700-
OAHU-

CITY           SKY/WX    TMP DP  RH WIND       PRES   REMARKS
HONOLULU       MOCLDY    72  63  73 NE6       29.96R
KALAELOA       CLOUDY    72  61  68 VRB3      29.97R
KANEOHE MCB    LGT RAIN  69  64  84 E3        29.95R
WHEELER FIELD  FAIR      67  61  81 N7        29.96R
BELLOWS*       NOT AVBL
KAHUKU*        NOT AVBL
WHEELER*       NOT AVBL
WAIANAE HARBOR NOT AVBL
DILLINGHAM*      N/A     72  61  68 MISG        N/A
KAHUKU TRN*      N/A     70  66  88 NW2G13      N/A
KAWAILOA*        N/A     64  61  88 NE3G10      N/A
KII*             N/A     70  63  78 N7G16       N/A
MAKUA RANGE*     N/A    N/A N/A N/A NE6G14      N/A
OAHU FOREST NW NOT AVBL
SCHOFIELD BRK*   N/A     66  63  88 MISG        N/A
SCHOFIELD S*   NOT AVBL
WAIANAE VLY*   NOT AVBL
KUAOKALA*      NOT AVBL
HONOULIUULI*   NOT AVBL
MOKUOLOE IS*   NOT AVBL
PALEHUA*       NOT AVBL
WAIAWA PHB*    NOT AVBL
$$

HIZ012>013-260700-
MOLOKAI-

CITY           SKY/WX    TMP DP  RH WIND       PRES   REMARKS
MOLOKAI AIRPT  CLEAR     69  60  73 N6        29.97R
KALAUPAPA      NOT AVBL
MAKAPULAPAI*   NOT AVBL
MOLOKAI 1*     NOT AVBL
PUU ALII*      NOT AVBL
$$

HIZ016-260700-
KAHOOLAWE-

CITY           SKY/WX    TMP DP  RH WIND       PRES   REMARKS
KAHOOLAWE*     NOT AVBL
HAKIOAWA*      NOT AVBL
HONOKANAIA*      N/A     74  61  63 N10G16    29.97R
KANELOA*         N/A    N/A N/A N/A N14       30.01R
KEALIALALO*    NOT AVBL
LUA MAKIKA*    NOT AVBL
$$

HIZ014>015-260700-
LANAI-

CITY           SKY/WX    TMP DP  RH WIND       PRES   REMARKS
LANAI CITY     FAIR      65  60  84 NE7       30.00R
LANAI 1*       NOT AVBL
$$

HIZ017>028-260700-
MAUI-

CITY           SKY/WX    TMP DP  RH WIND       PRES   REMARKS
KAHULUI        PTCLDY    73  63  70 NE6       29.97R
KAPALUA-W MAUI NOT AVBL
HANA AIRPORT   CLOUDY    70  63  78 SW3       30.00S
HANA*          NOT AVBL
HALEAKALA SUMM NOT AVBL
MAALAEA BAY*   NOT AVBL
HALEAKALA*     NOT AVBL
KAUPO GAP*     NOT AVBL
KULA 1*          N/A     46  43  87 N1G7        N/A
$$

HIZ023>026-260700-
BIG ISLAND OF HAWAII COAST AND LOWER SLOPES-

CITY           SKY/WX    TMP DP  RH WIND       PRES   REMARKS
KAILUA KONA    MOCLDY    77  61  57 N6        29.94R
HILO           CLOUDY    71  62  73 N7        29.97R
HONOKAA*       NOT AVBL
KAWAIHAE MWT*  NOT AVBL
KAWAIHAE*        N/A     79 N/A N/A S5          N/A
SOUTH POINT*   NOT AVBL
UPOLU AIRPORT* NOT AVBL
KAMUELA*       CLOUDY    61  57  88 E7        30.05S VSB 1/4
HAKALAU*         N/A     50  50 100 CALM        N/A
KALOKO-HONOKO* NOT AVBL
PALI 2*          N/A     61  59  94 NE3         N/A
KEALAKOMO*       N/A     61  46  59 N12G17      N/A
KAUPULEHU*     NOT AVBL
KAPAPALA*        N/A     63  62  96 NW3         N/A
LOWER KAHUKU*  NOT AVBL
PUHE CS*       NOT AVBL
PUHO CS*       NOT AVBL
PTA KEAMUKU*     N/A     61  54  77 CALM        N/A
WAIKOLOA*      NOT AVBL
$$

HIZ027>028-260700-
BIG ISLAND OF HAWAII INTERIOR AND SUMMMITS-

CITY           SKY/WX    TMP DP  RH WIND       PRES   REMARKS
BRADSHAW FIELD CLEAR     53  47  79 W1        30.24R
MK VISITOR CEN NOT AVBL
MAUNA KEA*       N/A     43   3  19 NW10        N/A
MAUNA LOA*       N/A     52  14  22 MISG        N/A
MAUNA LOA 1*   NOT AVBL
PTA KIPUKA*      N/A     57  52  82 SW7         N/A
PTA RANGE 17*    N/A     55  50  82 S2          N/A
PTA WEST*        N/A     66  61  82 SE3G10      N/A
NENE CABIN*    NOT AVBL
AHUMOA*        NOT AVBL
PTA PORTABLE*  NOT AVBL
PUU MALI*        N/A     48  48 100 E3          N/A
$$

HIC003-260700-
NORTHWEST ISLANDS-

CITY           SKY/WX    TMP DP  RH WIND       PRES   REMARKS
MIDWAY ISLAND  CLEAR    N/A N/A N/A SE7       30.17R
MIDWAY NOS*    NOT AVBL
FRENCH FRIGATE NOT AVBL
$$

PHZ110>124-180-260700-
BUOY REPORTS

STATION/POSITION TIME  TEMP    WIND        PRES    WAVE   SWELL
                       AIR SEA DIR/SP/G            HT/PER HT/DIR
                 (UTC) (F)     (DEG/KT/KT) (MB)    (FT/S) (FT/D)
BUOY 51001       NOT AVBL
BUOY 51101       0600   72 76   40/ 12/ 14 1015.7R   6/13   5/250
BUOY 51100       NOT AVBL
BUOY 51002       0600   77 79   50/ 12/ 14 1013.5R   6/16   5/160
BUOY 51003       0500   73 79   60/ 14/ 17 1014.3R   6/14   5
BUOY 51004       0454   77 79   60/  6/ 10 1014.0R   6/10   7/ 20
BARBERS PT BUOY  NOT AVBL
WAIMEA BAY BUOY  0600      77                N/A     5/ 9   2/310
KAILUA BAY BUOY  0600      77                N/A     5/ 9   2/ 40
LANAI BUOY       NOT AVBL
BARBERS PT 2     0600      76                N/A     4/14   3/240
PAUWELA MAUI     0600      77                N/A     6/ 9   2/ 10
HILO             0600      77                N/A     6/10   3
KANEOHE BAY BUOY 0600      77                N/A     5/10   2/ 10
HANALEI KAUAI    0600      78                N/A     7/10   3/320
KAHULUI HARBOR   0600   73 78  320/  6/  8 1014.5R
HONOLULU HARBOR  0600   72 77  340/  5/  8 1014.7R
KILO NALU        NOT AVBL
HILO HARBOR      0600   71 75  340/  8/  9 1014.6R
MOKUOLOE         0600      78              1014.9S
NAWILIWILI       0600   71 78  280/  4/  5 1015.0R
WHOTS BUOY       NOT AVBL
BUOY 51028       NOT AVBL
$$

......................KEY........................................
  SKY/WX - SKY CONDITIONS/PRESENT WEATHER
  TMP    - TEMPERATURE IN FAHRENHEIT
  DWPT   - DEWPOINT IN FAHRENHEIT
  RH     - RELATIVE HUMIDITY IN PERCENT
  WIND   - DIRECTION AND SPEED /MPH FOR ISLANDS...KTS FOR BUOYS/
  PRES   - MEAN SEA LEVEL PRESSURE IN INCHES OF HG
  VSB    - VISIBILITY IN MILES
  HX     - HEAT INDEX
  WCI    - WIND CHILL INDEX
  VRB    - VARIABLE WIND DIRECTION
  N/A    - NOT AVAILABLE


USA.gov is the U.S. government's official web portal to all federal, state and local government web resources and services.